Dewpoint
66 69 72 72 72 71 70 71 71 73 72 71 71 71 71 71 72 72 72 72 72 72 71 71 72 71 71 70 71 71 72 72 72 73 73 72 72 73 73 73 73 69 72
66 69 72 72 72 72 70 70 71 73 73 72 71 70 70 70 70 70 70 71 71 70 71 72 71 72 70 70 71 72 72 73 72 72 71 71 72 73 72 73 73 71 72
67 69 69 71 72 72 72 71 69 71 73 72 72 70 70 70 70 70 70 70 70 70 71 71 71 71 71 71 72 72 72 72 72 72 71 70 69 72 72 73 73 73 72
68 69 69 69 69 72 72 72 70 71 72 72 72 71 70 70 70 70 70 70 70 70 71 71 71 72 72 72 72 72 72 72 71 71 68 69 69 72 72 72 72 72 72
67 69 68 69 71 71 71 71 71 72 72 72 72 72 71 70 70 70 70 71 71 72 72 72 72 72 71 72 72 71 71 71 70 69 68 70 70 70 72 72 72 72 72
47 47 53 65 70 71 71 71 71 72 72 72 72 72 71 70 70 70 72 72 71 70 71 71 72 71 71 72 72 72 72 71 70 68 69 70 70 71 72 72 72 72 73
40 43 44 56 60 63 68 69 70 71 72 72 71 72 71 70 71 71 71 71 71 71 71 70 70 71 71 71 71 72 72 70 68 69 69 70 70 71 71 72 72 72 72
36 39 39 46 52 55 59 64 69 69 70 71 71 71 72 71 70 71 70 71 71 70 70 70 70 70 71 71 71 72 71 69 68 69 69 70 71 71 71 72 72 72 72
32 35 36 37 42 47 52 57 62 69 69 70 70 70 70 70 70 70 70 70 70 70 70 71 71 71 71 70 71 71 70 68 69 69 69 70 70 71 71 72 71 72 71
28 31 32 34 35 37 42 52 56 63 67 69 69 68 68 68 68 69 69 69 69 69 68 70 70 71 70 70 70 70 68 67 69 69 69 69 70 70 71 71 72 72 71
24 28 30 32 33 35 39 42 49 58 66 66 67 65 67 68 68 68 67 67 68 68 68 68 69 69 69 68 68 67 66 69 69 69 69 68 70 70 70 71 71 72 71
20 25 27 29 32 34 35 39 44 49 61 66 67 67 66 66 66 66 65 65 67 67 67 67 68 69 67 68 67 66 68 68 68 68 68 68 70 69 70 71 71 71 71
18 23 24 26 29 32 33 38 40 44 51 63 65 64 63 63 64 64 65 66 67 64 67 65 67 67 66 66 67 67 67 67 67 67 68 67 69 69 70 71 71 70 70
18 19 21 24 26 29 31 34 36 39 44 53 63 63 63 62 61 62 62 63 63 65 66 65 67 66 65 64 65 65 65 65 66 66 66 66 68 70 70 70 70 70 70
17 18 20 22 24 25 28 32 34 36 40 44 54 62 62 62 61 60 60 61 61 62 64 65 65 65 65 64 65 64 64 64 65 66 66 64 67 68 67 65 71 70 70
16 17 18 20 22 24 26 29 30 34 37 40 46 60 61 61 60 59 60 60 60 61 63 64 64 64 64 63 63 63 62 62 62 64 66 67 65 66 66 68 69 69 69
15 15 16 19 21 22 24 27 29 31 33 38 45 53 61 60 60 60 59 59 60 60 62 64 63 63 62 60 59 58 58 59 60 62 66 66 65 64 66 67 68 68 68
13 14 16 16 19 21 23 24 26 30 34 40 41 47 60 60 59 59 58 59 60 60 61 63 61 58 57 55 54 53 53 56 56 58 64 66 64 66 66 67 67 67 67
11 12 15 16 17 19 21 23 25 27 31 33 35 43 52 58 59 58 58 59 59 61 62 62 60 56 52 50 48 47 47 50 52 55 57 62 65 66 66 65 65 65 65
9 10 12 15 17 17 21 21 23 26 27 30 35 38 43 47 57 57 58 58 59 60 59 58 54 53 51 48 46 45 45 45 47 51 53 57 61 62 64 64 63 63 63
8 9 10 12 15 17 18 18 20 22 23 27 30 31 32 41 46 56 57 58 59 58 57 54 51 49 47 48 47 47 47 46 44 46 49 52 55 57 58 60 61 61 60
6 8 10 11 12 15 17 17 19 20 22 25 28 26 30 30 35 41 56 57 58 57 55 52 50 49 48 50 49 48 45 46 45 43 45 48 50 52 53 54 55 56 57
5 8 9 11 13 13 16 17 16 18 19 22 21 24 27 27 32 39 47 57 58 55 53 52 51 51 48 50 51 48 45 43 42 43 42 43 47 48 49 50 52 53 54
5 8 9 10 11 14 14 15 15 16 15 17 19 22 24 26 29 34 43 56 56 55 53 51 51 52 51 50 48 48 48 47 42 40 42 42 43 44 46 48 48 49 51
5 7 8 9 11 12 13 14 14 13 15 17 18 20 21 25 26 31 38 54 55 54 53 51 51 51 51 50 48 48 48 46 46 44 38 40 41 41 44 45 46 47 47
5 6 6 7 8 10 11 12 13 13 13 15 15 17 19 21 25 28 33 35 53 54 52 52 51 52 51 51 48 49 47 46 46 43 42 41 40 38 41 44 45 47 48
Lifted_Index
-1 -2 -3 -3 -3 -2 -1 -1 -2 -2 -2 -1 -1 -1 -1 -1 -1 -2 -2 -2 -2 -2 -3 -3 -3 -3 -3 -4 -4 -4 -5 -4 -5 -5 -5 -5 -5 -6 -6 -5 -5 -4 -4
-1 -2 -3 -3 -3 -3 -2 -2 -2 -2 -2 -2 -1 -1 -1 -1 -1 -1 -1 -2 -2 -2 -2 -3 -3 -3 -4 -4 -4 -5 -5 -5 -5 -5 -5 -5 -5 -5 -6 -5 -5 -5 -5
-2 -3 -3 -3 -3 -3 -3 -2 -2 -2 -2 -2 -2 -1 -1 -1 -1 -1 -1 -1 -1 -2 -2 -3 -3 -3 -4 -4 -4 -4 -4 -4 -4 -4 -5 -5 -5 -5 -5 -6 -6 -5 -5
-1 -2 -3 -3 -3 -4 -3 -3 -2 -2 -3 -3 -2 -2 -2 -2 -1 -1 -1 -1 -1 -2 -2 -2 -3 -3 -4 -4 -4 -4 -4 -4 -4 -4 -4 -5 -5 -5 -5 -5 -6 -5 -5
-1 -2 -2 -3 -3 -3 -3 -3 -3 -3 -3 -3 -3 -3 -2 -2 -2 -2 -2 -2 -2 -2 -2 -2 -3 -3 -3 -4 -4 -4 -4 -4 -4 -4 -4 -5 -5 -5 -5 -5 -5 -5 -5
-2 -1 -1 -1 -2 -2 -2 -2 -3 -3 -3 -3 -3 -3 -3 -3 -2 -2 -2 -2 -2 -2 -2 -2 -2 -3 -3 -3 -4 -4 -4 -4 -3 -4 -4 -5 -5 -5 -5 -5 -5 -5 -5
-1 -1 -1 -1 -1 -1 -1 -2 -2 -3 -3 -3 -3 -3 -3 -3 -3 -2 -2 -2 -2 -1 -2 -2 -2 -2 -3 -3 -4 -4 -4 -3 -3 -4 -4 -5 -5 -5 -5 -5 -5 -5 -5
-1 -1 -1 -1 -1 -1 -1 -2 -2 -2 -3 -3 -3 -3 -3 -3 -3 -3 -2 -2 -2 -1 -1 -2 -2 -2 -2 -3 -3 -3 -3 -3 -3 -4 -4 -5 -5 -5 -5 -5 -5 -5 -5
0 -0 -1 -1 -1 -1 -1 -2 -2 -2 -3 -3 -3 -3 -3 -3 -3 -2 -2 -2 -2 -1 -1 -2 -2 -2 -2 -2 -3 -3 -3 -3 -3 -4 -4 -4 -5 -5 -5 -5 -5 -5 -5
1 0 -0 -0 -0 -0 -1 -1 -2 -2 -2 -3 -3 -3 -3 -3 -2 -2 -2 -2 -1 -1 -0 -1 -2 -2 -2 -2 -2 -2 -2 -3 -3 -4 -4 -4 -4 -5 -5 -5 -5 -5 -5
2 1 1 1 0 0 -0 -1 -1 -2 -2 -2 -3 -3 -3 -3 -2 -2 -2 -1 -1 -0 0 -0 -1 -1 -1 -1 -1 -1 -2 -3 -3 -3 -3 -4 -4 -4 -5 -5 -5 -4 -4
5 4 3 2 2 1 0 -0 -1 -1 -1 -2 -3 -3 -3 -2 -2 -1 -1 -1 -1 -0 1 1 0 -0 -0 -0 -0 -1 -1 -2 -2 -3 -3 -3 -3 -4 -4 -4 -4 -4 -3
9 9 8 6 4 3 1 0 -0 -1 -1 -1 -2 -3 -2 -2 -1 -1 -1 -0 -0 0 1 1 1 0 1 1 1 0 -1 -1 -2 -2 -2 -2 -3 -3 -4 -4 -4 -3 -3
12 12 12 11 8 6 4 2 1 -0 -0 -1 -1 -1 -1 -1 -1 -0 -0 0 0 0 1 1 1 1 1 1 1 1 0 -0 -1 -1 -1 -2 -2 -2 -3 -3 -3 -3 -2
14 15 15 14 12 9 7 4 2 1 0 0 -0 -0 -0 -0 0 0 0 1 1 1 1 1 1 1 2 2 2 1 1 0 0 -0 -1 -1 -1 -1 -1 -1 -1 -2 -1
17 17 17 16 16 13 10 7 5 3 2 1 1 1 0 -0 0 1 1 1 2 2 2 1 1 2 2 2 2 2 2 1 1 1 0 -0 -0 -0 0 0 -0 -1 -0
20 20 19 19 18 16 14 11 8 5 4 2 2 1 1 0 0 1 1 2 2 3 2 2 2 2 2 2 2 2 2 2 1 1 0 0 0 0 0 0 0 0 0
22 22 21 21 20 18 16 14 11 9 6 4 3 2 2 1 1 1 2 3 3 3 3 3 2 2 2 2 3 3 3 2 2 1 1 0 0 0 -0 -0 0 0 1
24 23 23 22 21 20 18 16 14 11 9 6 4 3 2 2 2 2 3 3 4 4 3 3 3 3 2 3 3 3 3 2 2 1 1 1 1 1 0 0 1 1 1
26 26 25 24 23 22 20 17 15 13 11 8 6 4 3 3 3 3 3 3 4 4 4 3 3 3 3 3 3 3 3 3 2 1 1 1 1 1 1 1 2 2 2
27 27 26 25 24 23 21 19 17 14 12 10 8 6 4 3 3 3 3 3 4 4 4 3 3 3 3 3 3 3 3 3 2 2 1 1 1 1 2 2 3 3 4
25 26 26 26 25 24 23 21 19 17 14 12 10 8 6 5 4 4 4 3 4 4 4 3 3 3 3 3 3 3 3 3 3 2 2 2 2 2 2 3 4 5 5
22 23 23 24 25 25 24 22 20 18 16 14 12 10 8 7 5 4 4 4 4 4 3 3 3 3 3 3 3 3 3 3 3 4 4 3 3 3 4 5 5 6 7
19 19 20 21 22 23 22 21 19 18 16 15 14 13 11 10 7 5 4 4 4 4 3 3 2 3 2 2 2 3 2 2 3 4 4 4 5 5 6 7 7 8 8
16 17 17 17 18 19 20 20 19 17 17 16 15 15 14 12 9 7 5 5 5 4 3 3 2 2 2 2 2 2 2 2 2 3 4 5 7 7 8 8 9 9 9
15 15 15 15 15 17 18 19 18 17 17 16 15 15 14 13 10 7 6 5 5 4 3 3 3 2 2 2 2 2 2 2 2 3 3 5 7 9 9 9 10 10 10